,,PA_Meas_PMT16A,,PR_Meas_QMR101_102,,RH_Meas_QMH101,,SR_Meas_QMS101,,TA_Meas_QMH101,,GenWind,,GenWind,
time,status,PA,status,PR,status,RH,status,SR,status,TA,status,DirAvg,status,SpdAvg,
2016-10-22, 14:18:04,VALID,918.195,VALID,0,INVALID,116.684,VALID,157.831,VALID,21.1266,VALID,317,VALID,0,
2016-10-22, 14:19:04,VALID,918.194,VALID,0,INVALID,116.928,VALID,174.27,VALID,21.3022,VALID,8,VALID,0,
2016-10-22, 14:20:04,VALID,918.185,VALID,0,INVALID,116.615,VALID,181.898,VALID,21.4193,VALID,5,VALID,0,
2016-10-22, 14:21:04,VALID,918.209,VALID,0,INVALID,115.929,VALID,184.262,VALID,21.5575,VALID,3,VALID,0,
2016-10-22, 14:22:04,VALID,918.233,VALID,0,INVALID,114.961,VALID,178.352,VALID,21.6534,VALID,346,VALID,0,
2016-10-22, 14:23:04,VALID,918.255,VALID,0,INVALID,112.857,VALID,182.543,VALID,21.7315,VALID,15,VALID,0,
2016-10-22, 14:24:04,VALID,918.271,VALID,0,INVALID,110.158,VALID,189.741,VALID,21.8095,VALID,10,VALID,0,
2016-10-22, 14:25:04,VALID,918.319,VALID,0,VALID,103.762,VALID,188.129,VALID,21.8681,VALID,342,VALID,0,
2016-10-22, 14:26:04,VALID,918.359,VALID,0,VALID,104,VALID,202.419,VALID,21.9071,VALID,342,VALID,0,
2016-10-22, 14:27:04,VALID,918.348,VALID,0,VALID,99.6914,VALID,213.271,VALID,21.9266,VALID,342,VALID,0,
2016-10-22, 14:28:04,VALID,918.325,VALID,0,VALID,95.3156,VALID,216.924,VALID,21.9461,VALID,2,VALID,0,
2016-10-22, 14:29:04,VALID,918.334,VALID,0,VALID,103.602,VALID,224.337,VALID,22.0242,VALID,1,VALID,0,
2016-10-22, 14:30:04,VALID,918.323,VALID,0,VALID,100.835,VALID,229.924,VALID,22.2371,VALID,1,VALID,0,
2016-10-22, 14:31:04,VALID,918.361,VALID,0,VALID,95.468,VALID,209.618,VALID,22.395,VALID,327,VALID,0,
2016-10-22, 14:32:04,VALID,918.351,VALID,0,VALID,90.4442,VALID,224.122,VALID,22.4323,VALID,327,VALID,0,
2016-10-22, 14:33:04,VALID,918.394,VALID,0,VALID,91.1151,VALID,243.139,VALID,22.5723,VALID,336,VALID,0,
2016-10-22, 14:34:04,VALID,918.387,VALID,0,VALID,88.3325,VALID,239.594,VALID,22.5706,VALID,18,VALID,0,
2016-10-22, 14:35:04,VALID,918.445,VALID,0,VALID,86.9146,VALID,256.462,VALID,22.5316,VALID,313,VALID,0,
2016-10-22, 14:36:04,VALID,918.484,VALID,0,VALID,88.6908,VALID,268.388,VALID,22.3933,VALID,313,VALID,0,
2016-10-22, 14:37:04,VALID,918.494,VALID,0,VALID,98.0295,VALID,252.809,VALID,22.395,VALID,315,VALID,0,
2016-10-22, 14:38:04,VALID,918.499,VALID,0,VALID,101.513,VALID,221.866,VALID,22.3933,VALID,347,VALID,0,
2016-10-22, 14:39:04,VALID,918.533,VALID,0,VALID,90.6882,VALID,220.254,VALID,22.3737,VALID,354,VALID,0,
2016-10-22, 14:40:04,VALID,918.531,VALID,0,VALID,89.1025,VALID,257.644,VALID,22.4128,VALID,25,VALID,0,
2016-10-22, 14:41:04,VALID,918.545,VALID,0,VALID,91.3361,VALID,254.206,VALID,22.4696,VALID,40,VALID,0,
2016-10-22, 14:42:04,VALID,918.56,VALID,0,VALID,91.4124,VALID,276.231,VALID,22.6079,VALID,27,VALID,0,
2016-10-22, 14:43:04,VALID,918.566,VALID,0,VALID,88.0047,VALID,259.578,VALID,22.7267,VALID,34,VALID,0,
2016-10-22, 14:44:04,VALID,918.579,VALID,0,VALID,84.9401,VALID,278.058,VALID,22.7072,VALID,12,VALID,0,
2016-10-22, 14:45:04,VALID,918.58,VALID,0,VALID,89.1025,VALID,261.512,VALID,22.6274,VALID,356,VALID,0,
2016-10-22, 14:46:04,VALID,918.597,VALID,0,VALID,88.8967,VALID,296.215,VALID,22.686,VALID,12,VALID,0,
2016-10-22, 14:47:04,VALID,918.618,VALID,0,VALID,87.3948,VALID,280.314,VALID,22.7055,VALID,323,VALID,0,
2016-10-22, 14:48:04,VALID,918.637,VALID,0,VALID,89.8115,VALID,269.033,VALID,22.725,VALID,359,VALID,0,
2016-10-22, 14:49:04,VALID,918.646,VALID,0,VALID,89.0034,VALID,280.314,VALID,22.8421,VALID,356,VALID,0,
2016-10-22, 14:50:04,VALID,918.652,VALID,0,VALID,87.3796,VALID,277.843,VALID,22.9202,VALID,6,VALID,0,
2016-10-22, 14:51:04,VALID,918.691,VALID,0,VALID,86.9908,VALID,253.454,VALID,22.9787,VALID,20,VALID,0,
2016-10-22, 14:52:04,VALID,918.668,VALID,0,VALID,85.9616,VALID,238.519,VALID,22.938,VALID,10,VALID,0.141797,
2016-10-22, 14:53:04,VALID,918.7,VALID,0,VALID,89.7733,VALID,238.842,VALID,22.9397,VALID,12,VALID,0,
2016-10-22, 14:54:04,VALID,918.726,VALID,0,VALID,87.4025,VALID,248.834,VALID,22.9007,VALID,319,VALID,0,
2016-10-22, 14:55:04,VALID,918.729,VALID,0,VALID,88.7366,VALID,286.546,VALID,22.9185,VALID,7,VALID,0,
2016-10-22, 14:56:04,VALID,918.756,VALID,0,VALID,88.1801,VALID,304.811,VALID,23.0356,VALID,15,VALID,0,
2016-10-22, 14:57:04,VALID,918.768,VALID,0,VALID,87.7531,VALID,297.397,VALID,23.1544,VALID,3,VALID,0,
2016-10-22, 14:58:04,VALID,918.772,VALID,0,VALID,83.2782,VALID,269.677,VALID,23.1544,VALID,298,VALID,0,
2016-10-22, 14:59:04,VALID,918.824,VALID,0,VALID,83.3468,VALID,233.147,VALID,23.0356,VALID,7,VALID,0,
2016-10-22, 15:00:04,VALID,918.842,VALID,0,VALID,84.6352,VALID,230.461,VALID,23.0551,VALID,339,VALID,0,
2016-10-22, 15:01:04,VALID,918.824,VALID,0,VALID,83.7356,VALID,251.52,VALID,23.0178,VALID,5,VALID,0,
2016-10-22, 15:02:04,VALID,918.871,VALID,0,VALID,83.5831,VALID,260.652,VALID,22.977,VALID,348,VALID,0,
2016-10-22, 15:03:04,VALID,918.891,VALID,0,VALID,85.4204,VALID,245.718,VALID,22.977,VALID,360,VALID,0,
2016-10-22, 15:04:04,VALID,918.896,VALID,0,VALID,84.3988,VALID,257.429,VALID,22.9185,VALID,17,VALID,1.07969,
2016-10-22, 15:05:04,VALID,918.907,VALID,0,VALID,84.5818,VALID,257.214,VALID,22.7428,VALID,12,VALID,1.16172,
2016-10-22, 15:06:04,VALID,918.969,VALID,0,VALID,88.5307,VALID,267.528,VALID,22.6452,VALID,2,VALID,0.0128906,
2016-10-22, 15:07:04,VALID,918.978,VALID,0,VALID,97.1071,VALID,273.975,VALID,22.6647,VALID,21,VALID,0,
2016-10-22, 15:08:04,VALID,918.991,VALID,0,VALID,87.776,VALID,263.875,VALID,22.6665,VALID,16,VALID,0.210156,
2016-10-22, 15:09:04,VALID,919,VALID,0,VALID,94.8048,VALID,265.272,VALID,22.6647,VALID,19,VALID,0.0378906,
2016-10-22, 15:10:04,VALID,919,VALID,0,VALID,94.0806,VALID,267.314,VALID,22.7641,VALID,7,VALID,0,
2016-10-22, 15:11:04,VALID,919.062,VALID,0,VALID,85.2908,VALID,260.652,VALID,22.8404,VALID,313,VALID,0,
2016-10-22, 15:12:04,VALID,919.071,VALID,0,VALID,84.1549,VALID,251.412,VALID,22.8794,VALID,318,VALID,0,
2016-10-22, 15:13:05,VALID,919.066,VALID,0,VALID,84.2692,VALID,249.586,VALID,22.938,VALID,20,VALID,0,
2016-10-22, 15:14:04,VALID,919.063,VALID,0,VALID,82.7064,VALID,249.263,VALID,22.8989,VALID,308,VALID,0,
2016-10-22, 15:15:04,VALID,919.079,VALID,0,VALID,83.8195,VALID,251.735,VALID,22.8404,VALID,298,VALID,0,
2016-10-22, 15:16:04,VALID,919.122,VALID,0,VALID,84.4979,VALID,257.322,VALID,22.9575,VALID,19,VALID,0,
2016-10-22, 15:17:04,VALID,919.102,VALID,0,VALID,84.6962,VALID,265.702,VALID,23.0941,VALID,25,VALID,0,
2016-10-22, 15:18:04,VALID,919.131,VALID,0,VALID,81.8602,VALID,265.917,VALID,23.1331,VALID,328,VALID,0,
2016-10-22, 15:19:04,VALID,919.174,VALID,0,VALID,82.5845,VALID,261.942,VALID,23.1136,VALID,352,VALID,0,
2016-10-22, 15:20:04,VALID,919.171,VALID,0,VALID,83.7356,VALID,266.561,VALID,23.1722,VALID,358,VALID,0,
2016-10-22, 15:21:04,VALID,919.15,VALID,0,VALID,83.9643,VALID,275.587,VALID,23.1154,VALID,325,VALID,0,
2016-10-22, 15:22:04,VALID,919.192,VALID,0,VALID,81.9517,VALID,277.628,VALID,23.0941,VALID,332,VALID,0.000390625,
2016-10-22, 15:23:04,VALID,919.159,VALID,0,VALID,80.8997,VALID,298.794,VALID,23.0551,VALID,18,VALID,0.00273437,
2016-10-22, 15:24:04,VALID,919.17,VALID,0,VALID,81.7078,VALID,320.282,VALID,23.016,VALID,9,VALID,0,
2016-10-22, 15:25:04,VALID,919.17,VALID,0,VALID,83.3011,VALID,305.025,VALID,23.0763,VALID,7,VALID,0,
2016-10-22, 15:26:04,VALID,919.197,VALID,0,VALID,84.2464,VALID,323.398,VALID,23.1136,VALID,353,VALID,0,
2016-10-22, 15:27:04,VALID,919.161,VALID,0,VALID,81.8907,VALID,316.307,VALID,23.1917,VALID,9,VALID,0,
2016-10-22, 15:28:04,VALID,919.172,VALID,0,VALID,81.845,VALID,336.506,VALID,23.2893,VALID,349,VALID,0,
2016-10-22, 15:29:04,VALID,919.162,VALID,0,VALID,81.1513,VALID,343.06,VALID,23.3478,VALID,2,VALID,0,
2016-10-22, 15:30:04,VALID,919.23,VALID,0,VALID,80.8387,VALID,445.881,VALID,23.3869,VALID,1,VALID,0,
2016-10-22, 15:31:04,VALID,919.229,VALID,0,VALID,80.4575,VALID,467.262,VALID,23.4454,VALID,20,VALID,0,
2016-10-22, 15:32:04,VALID,919.253,VALID,0,VALID,81.2809,VALID,472.526,VALID,23.5608,VALID,1,VALID,0,
2016-10-22, 15:33:04,VALID,919.245,VALID,0,VALID,78.1171,VALID,421.814,VALID,23.7578,VALID,318,VALID,0,
2016-10-22, 15:34:04,VALID,919.254,VALID,0,VALID,78.079,VALID,419.45,VALID,23.7578,VALID,330,VALID,0,
2016-10-22, 15:35:04,VALID,919.266,VALID,0,VALID,78.6737,VALID,414.615,VALID,23.8749,VALID,28,VALID,0,
2016-10-22, 15:36:04,VALID,919.287,VALID,0,VALID,77.7817,VALID,410.21,VALID,23.9316,VALID,345,VALID,0,
2016-10-22, 15:37:04,VALID,919.266,VALID,0,VALID,75.7234,VALID,450.393,VALID,23.9512,VALID,293,VALID,0.741797,
2016-10-22, 15:38:04,VALID,919.285,VALID,0,VALID,75.7234,VALID,499.709,VALID,23.9512,VALID,307,VALID,0.0195313,
2016-10-22, 15:39:04,VALID,919.318,VALID,0,VALID,76.7525,VALID,510.023,VALID,24.0292,VALID,17,VALID,0,
2016-10-22, 15:40:04,VALID,919.313,VALID,0,VALID,78.0485,VALID,547.95,VALID,24.2421,VALID,17,VALID,0.440625,
2016-10-22, 15:41:04,VALID,919.288,VALID,0,VALID,74.7628,VALID,555.471,VALID,24.402,VALID,38,VALID,0.461328,
2016-10-22, 15:42:04,VALID,919.267,VALID,0,VALID,76.7297,VALID,552.033,VALID,24.3221,VALID,21,VALID,0,
2016-10-22, 15:43:04,VALID,919.245,VALID,0,VALID,76.7907,VALID,552.033,VALID,24.4392,VALID,47,VALID,0,
2016-10-22, 15:44:04,VALID,919.264,VALID,0,VALID,75.0144,VALID,548.917,VALID,24.5582,VALID,253,VALID,0,
2016-10-22, 15:45:04,VALID,919.254,VALID,0,VALID,73.566,VALID,557.19,VALID,24.6754,VALID,268,VALID,0,
2016-10-22, 15:46:04,VALID,919.244,VALID,0,VALID,77.0117,VALID,584.587,VALID,24.7907,VALID,343,VALID,0,
2016-10-22, 15:47:04,VALID,919.275,VALID,0,VALID,75.4489,VALID,589.637,VALID,24.9469,VALID,346,VALID,0,
2016-10-22, 15:48:04,VALID,919.269,VALID,0,VALID,72.0032,VALID,575.025,VALID,24.9859,VALID,298,VALID,0,
2016-10-22, 15:49:04,VALID,919.269,VALID,0,VALID,70.8901,VALID,562.24,VALID,24.8297,VALID,326,VALID,0.282031,
2016-10-22, 15:50:04,VALID,919.272,VALID,0,VALID,71.5381,VALID,571.372,VALID,24.8492,VALID,9,VALID,0,
2016-10-22, 15:51:04,VALID,919.24,VALID,0,VALID,71.4238,VALID,533.66,VALID,25.0836,VALID,3,VALID,0,
2016-10-22, 15:52:04,VALID,919.248,VALID,0,VALID,72.613,VALID,505.511,VALID,25.2984,VALID,32,VALID,0,
2016-10-22, 15:53:04,VALID,919.221,VALID,0,VALID,73.8557,VALID,513.354,VALID,25.2203,VALID,8,VALID,0.778906,
2016-10-22, 15:54:04,VALID,919.25,VALID,0,VALID,72.857,VALID,512.387,VALID,25.0231,VALID,6,VALID,0.0894531,
2016-10-22, 15:55:04,VALID,919.217,VALID,0,VALID,74.3664,VALID,480.584,VALID,24.9059,VALID,353,VALID,0.572656,
2016-10-22, 15:56:04,VALID,919.219,VALID,0,VALID,74.3512,VALID,447.17,VALID,24.6912,VALID,18,VALID,0,
2016-10-22, 15:57:04,VALID,919.247,VALID,0,VALID,74.557,VALID,423.748,VALID,24.5722,VALID,327,VALID,0,
2016-10-22, 15:58:04,VALID,919.243,VALID,0,VALID,75.5709,VALID,428.69,VALID,24.535,VALID,337,VALID,0.840234,
2016-10-22, 15:59:04,VALID,919.235,VALID,0,VALID,76.196,VALID,428.046,VALID,24.4764,VALID,1,VALID,2.02578,
2016-10-22, 16:00:04,VALID,919.29,VALID,0,VALID,78.4526,VALID,377.118,VALID,24.3574,VALID,17,VALID,2.28281,
2016-10-22, 16:01:04,VALID,919.271,VALID,0,VALID,76.966,VALID,363.044,VALID,24.2793,VALID,18,VALID,0.0386719,
2016-10-22, 16:02:04,VALID,919.266,VALID,0,VALID,76.6458,VALID,505.94,VALID,24.1641,VALID,17,VALID,2.18086,
2016-10-22, 16:03:04,VALID,919.298,VALID,0,VALID,78.384,VALID,544.512,VALID,24.0683,VALID,341,VALID,1.02031,
2016-10-22, 16:04:04,VALID,919.255,VALID,0,VALID,76.8364,VALID,590.067,VALID,24.0683,VALID,17,VALID,0,
2016-10-22, 16:05:04,VALID,919.275,VALID,0,VALID,74.8543,VALID,579.86,VALID,24.125,VALID,295,VALID,0.164063,
2016-10-22, 16:06:04,VALID,919.294,VALID,0,VALID,78.4831,VALID,614.456,VALID,24.2421,VALID,329,VALID,0.0105469,
2016-10-22, 16:07:04,VALID,919.289,VALID,0,VALID,77.8656,VALID,648.407,VALID,24.4764,VALID,27,VALID,0.726563,
2016-10-22, 16:08:04,VALID,919.319,VALID,0,VALID,78.6279,VALID,610.266,VALID,24.7107,VALID,46,VALID,0.603125,
2016-10-22, 16:09:04,VALID,919.307,VALID,0,VALID,74.5189,VALID,612.737,VALID,25.0231,VALID,31,VALID,1.18672,
2016-10-22, 16:10:04,VALID,919.33,VALID,0,VALID,73.2153,VALID,622.299,VALID,25.0231,VALID,29,VALID,1.3625,
2016-10-22, 16:11:04,VALID,919.326,VALID,0,VALID,74.8238,VALID,542.363,VALID,24.8864,VALID,55,VALID,1.42695,
2016-10-22, 16:12:04,VALID,919.364,VALID,0,VALID,76.9965,VALID,570.19,VALID,24.9645,VALID,346,VALID,0.110547,
2016-10-22, 16:13:04,VALID,919.346,VALID,0,VALID,73.8938,VALID,593.29,VALID,25.0621,VALID,358,VALID,0,
2016-10-22, 16:14:04,VALID,919.39,VALID,0,VALID,72.0718,VALID,597.91,VALID,25.0993,VALID,329,VALID,0,
2016-10-22, 16:15:04,VALID,919.366,VALID,0,VALID,71.8431,VALID,603.927,VALID,25.275,VALID,305,VALID,0,
2016-10-22, 16:16:04,VALID,919.389,VALID,0,VALID,69.1139,VALID,555.148,VALID,25.316,VALID,267,VALID,0.417188,
2016-10-22, 16:17:04,VALID,919.387,VALID,0,VALID,70.8292,VALID,575.455,VALID,25.1793,VALID,286,VALID,0,
2016-10-22, 16:18:04,VALID,919.382,VALID,0,VALID,70.791,VALID,546.768,VALID,25.1988,VALID,298,VALID,0.0015625,
2016-10-22, 16:19:04,VALID,919.344,VALID,0,VALID,68.969,VALID,556.76,VALID,25.0602,VALID,15,VALID,0.452344,
2016-10-22, 16:20:04,VALID,919.332,VALID,0,VALID,70.265,VALID,512.924,VALID,24.9431,VALID,12,VALID,0,
2016-10-22, 16:21:04,VALID,919.336,VALID,0,VALID,72.1556,VALID,425.789,VALID,25.0817,VALID,5,VALID,0,
2016-10-22, 16:22:04,VALID,919.389,VALID,0,VALID,71.7745,VALID,420.954,VALID,24.9626,VALID,299,VALID,0.699609,
2016-10-22, 16:23:04,VALID,919.337,VALID,0,VALID,70.3717,VALID,424.393,VALID,24.7674,VALID,302,VALID,0,
2016-10-22, 16:24:04,VALID,919.338,VALID,0,VALID,72.6207,VALID,629.713,VALID,24.7088,VALID,298,VALID,0,
2016-10-22, 16:25:04,VALID,919.324,VALID,0,VALID,73.505,VALID,641.209,VALID,24.6502,VALID,277,VALID,0,
2016-10-22, 16:26:04,VALID,919.315,VALID,0,VALID,74.2902,VALID,701.268,VALID,24.5526,VALID,301,VALID,0.0160156,
2016-10-22, 16:27:04,VALID,919.323,VALID,0,VALID,75.6395,VALID,687.086,VALID,24.7069,VALID,344,VALID,0.00351562,
2016-10-22, 16:28:04,VALID,919.343,VALID,0,VALID,71.9269,VALID,700.731,VALID,24.865,VALID,339,VALID,0.682031,
2016-10-22, 16:29:04,VALID,919.337,VALID,0,VALID,70.2498,VALID,714.161,VALID,25.0231,VALID,21,VALID,0.227344,
2016-10-22, 16:30:04,VALID,919.36,VALID,0,VALID,72.796,VALID,741.237,VALID,25.1579,VALID,340,VALID,0,
2016-10-22, 16:31:04,VALID,919.368,VALID,0,VALID,70.387,VALID,742.741,VALID,25.4507,VALID,259,VALID,0,
2016-10-22, 16:32:04,VALID,919.366,VALID,0,VALID,70.9588,VALID,738.443,VALID,25.7222,VALID,207,VALID,0,
2016-10-22, 16:33:04,VALID,919.38,VALID,0,VALID,68.8852,VALID,746.394,VALID,26.1538,VALID,89,VALID,0.0648438,
2016-10-22, 16:34:04,VALID,919.38,VALID,0,VALID,64.9896,VALID,729.311,VALID,26.3882,VALID,2,VALID,0,
2016-10-22, 16:35:04,VALID,919.389,VALID,0,VALID,67.0403,VALID,707.393,VALID,26.3491,VALID,11,VALID,1.9043,
2016-10-22, 16:36:04,VALID,919.358,VALID,0,VALID,68.9386,VALID,686.119,VALID,26.1342,VALID,16,VALID,1.7375,
2016-10-22, 16:37:04,VALID,919.427,VALID,0,VALID,67.1089,VALID,665.705,VALID,26.1147,VALID,26,VALID,0.413281,
2016-10-22, 16:38:04,VALID,919.394,VALID,0,VALID,66.1865,VALID,637.341,VALID,26.2514,VALID,334,VALID,0.0121094,
2016-10-22, 16:39:04,VALID,919.379,VALID,0,VALID,67.7417,VALID,655.498,VALID,26.2319,VALID,245,VALID,0.262109,
2016-10-22, 16:40:04,VALID,919.376,VALID,0,VALID,66.5905,VALID,640.242,VALID,26.1538,VALID,21,VALID,0.385547,
2016-10-22, 16:41:04,VALID,919.378,VALID,0,VALID,66.865,VALID,675.268,VALID,26.1928,VALID,356,VALID,0.0445312,
2016-10-22, 16:42:04,VALID,919.357,VALID,0,VALID,66.4228,VALID,630.035,VALID,26.31,VALID,350,VALID,0.963281,
2016-10-22, 16:43:04,VALID,919.368,VALID,0,VALID,67.1394,VALID,450.286,VALID,26.3296,VALID,13,VALID,1.88125,
2016-10-22, 16:44:04,VALID,919.343,VALID,0,VALID,66.4457,VALID,684.185,VALID,26.2885,VALID,358,VALID,0.469141,
2016-10-22, 16:45:04,VALID,919.294,VALID,0,VALID,66.156,VALID,648.085,VALID,26.2514,VALID,1,VALID,0,
2016-10-22, 16:46:04,VALID,919.317,VALID,0,VALID,65.5995,VALID,650.556,VALID,26.1928,VALID,21,VALID,1.18281,
2016-10-22, 16:47:04,VALID,919.29,VALID,0,VALID,65.6681,VALID,674.193,VALID,26.2124,VALID,2,VALID,0.203516,
2016-10-22, 16:48:04,VALID,919.284,VALID,0,VALID,65.7596,VALID,728.236,VALID,26.3276,VALID,351,VALID,0.0289063,
2016-10-22, 16:49:04,VALID,919.263,VALID,0,VALID,65.0201,VALID,430.087,VALID,26.5229,VALID,255,VALID,0.0957031,
2016-10-22, 16:50:04,VALID,919.246,VALID,0,VALID,64.7914,VALID,265.38,VALID,26.4057,VALID,336,VALID,0.244531,
2016-10-22, 16:51:04,VALID,919.263,VALID,0,VALID,66.217,VALID,286.546,VALID,26.0737,VALID,33,VALID,1.63398,
2016-10-22, 16:52:04,VALID,919.269,VALID,0,VALID,69.0605,VALID,456.088,VALID,25.9956,VALID,70,VALID,0.444531,
2016-10-22, 16:53:04,VALID,919.246,VALID,0,VALID,68.1762,VALID,336.935,VALID,26.0346,VALID,5,VALID,0.751172,
2016-10-22, 16:54:04,VALID,919.276,VALID,0,VALID,66.9336,VALID,745.319,VALID,25.9565,VALID,350,VALID,1.16602,
2016-10-22, 16:55:04,VALID,919.259,VALID,0,VALID,67.2614,VALID,707.715,VALID,25.976,VALID,6,VALID,0.195703,
2016-10-22, 16:56:04,VALID,919.23,VALID,0,VALID,66.9336,VALID,690.417,VALID,26.1908,VALID,313,VALID,0.000390625,
2016-10-22, 16:57:04,VALID,919.206,VALID,0,VALID,66.4533,VALID,679.135,VALID,26.0346,VALID,301,VALID,0,
2016-10-22, 16:58:04,VALID,919.153,VALID,0,VALID,67.5053,VALID,724.368,VALID,25.978,VALID,83,VALID,0,
2016-10-22, 16:59:04,VALID,919.177,VALID,0,VALID,66.4076,VALID,623.588,VALID,26.1518,VALID,16,VALID,0,
2016-10-22, 17:00:04,VALID,919.177,VALID,0,VALID,67.0327,VALID,521.304,VALID,26.1713,VALID,67,VALID,0,
2016-10-22, 17:01:04,VALID,919.184,VALID,0,VALID,67.0022,VALID,279.884,VALID,26.2104,VALID,333,VALID,0,
2016-10-22, 17:02:04,VALID,919.184,VALID,0,VALID,67.269,VALID,349.506,VALID,26.0932,VALID,251,VALID,0.0308594,
2016-10-22, 17:03:04,VALID,919.189,VALID,0,VALID,67.4672,VALID,593.505,VALID,25.8393,VALID,308,VALID,0.0496094,
2016-10-22, 17:04:04,VALID,919.205,VALID,0,VALID,68.4888,VALID,263.123,VALID,25.8374,VALID,21,VALID,0,
2016-10-22, 17:05:04,VALID,919.17,VALID,0,VALID,69.2282,VALID,292.777,VALID,25.937,VALID,39,VALID,0.234766,
2016-10-22, 17:06:04,VALID,919.193,VALID,0,VALID,69.7924,VALID,349.291,VALID,25.9956,VALID,12,VALID,0,
2016-10-22, 17:07:04,VALID,919.167,VALID,0,VALID,67.7722,VALID,309.753,VALID,26.0326,VALID,23,VALID,0,
2016-10-22, 17:08:04,VALID,919.185,VALID,0,VALID,67.2233,VALID,341.878,VALID,26.0541,VALID,148,VALID,0,
2016-10-22, 17:09:04,VALID,919.143,VALID,0,VALID,68.9462,VALID,312.331,VALID,25.8979,VALID,359,VALID,0,
2016-10-22, 17:10:04,VALID,919.12,VALID,0,VALID,69.7085,VALID,305.563,VALID,25.7397,VALID,359,VALID,0,
2016-10-22, 17:11:04,VALID,919.137,VALID,0,VALID,71.1112,VALID,290.843,VALID,25.8374,VALID,15,VALID,0,
2016-10-22, 17:12:04,VALID,919.124,VALID,0,VALID,70.2345,VALID,287.835,VALID,26.0151,VALID,15,VALID,0,
2016-10-22, 17:13:04,VALID,919.136,VALID,0,VALID,69.6247,VALID,295.785,VALID,26.1127,VALID,8,VALID,0,
2016-10-22, 17:14:04,VALID,919.125,VALID,0,VALID,68.809,VALID,484.667,VALID,26.0541,VALID,34,VALID,0,
2016-10-22, 17:15:04,VALID,919.134,VALID,0,VALID,69.1901,VALID,300.191,VALID,26.0737,VALID,18,VALID,0,
2016-10-22, 17:16:04,VALID,919.141,VALID,0,VALID,68.9386,VALID,379.052,VALID,26.1127,VALID,17,VALID,0,
2016-10-22, 17:17:04,VALID,919.143,VALID,0,VALID,68.626,VALID,343.597,VALID,26.1908,VALID,6,VALID,0.166406,
2016-10-22, 17:18:04,VALID,919.138,VALID,0,VALID,68.504,VALID,587.058,VALID,26.0932,VALID,28,VALID,0,
2016-10-22, 17:19:04,VALID,919.13,VALID,0,VALID,69.5332,VALID,602.315,VALID,26.0541,VALID,304,VALID,0,
2016-10-22, 17:20:04,VALID,919.154,VALID,0,VALID,70.2269,VALID,575.025,VALID,26.0932,VALID,264,VALID,0,
2016-10-22, 17:21:04,VALID,919.12,VALID,0,VALID,68.2524,VALID,687.516,VALID,26.1928,VALID,190,VALID,0,
2016-10-22, 17:22:04,VALID,919.123,VALID,0,VALID,67.6349,VALID,745.642,VALID,26.1928,VALID,228,VALID,0,
2016-10-22, 17:23:04,VALID,919.098,VALID,0,VALID,65.6986,VALID,719.856,VALID,26.3296,VALID,233,VALID,0,
2016-10-22, 17:24:04,VALID,919.075,VALID,0,VALID,67.1242,VALID,765.626,VALID,26.4252,VALID,145,VALID,0,
2016-10-22, 17:25:04,VALID,919.129,VALID,0,VALID,68.4735,VALID,547.305,VALID,26.6791,VALID,28,VALID,0.120703,
2016-10-22, 17:26:04,VALID,919.074,VALID,0,VALID,70.0287,VALID,348.109,VALID,26.8374,VALID,2,VALID,0.335156,
2016-10-22, 17:27:04,VALID,919.051,VALID,0,VALID,66.7049,VALID,625.845,VALID,26.9917,VALID,14,VALID,0,
2016-10-22, 17:28:04,VALID,919.025,VALID,0,VALID,62.9465,VALID,711.046,VALID,27.1089,VALID,258,VALID,0.712109,
2016-10-22, 17:29:04,VALID,918.996,VALID,0,VALID,65.2869,VALID,671.185,VALID,26.6596,VALID,271,VALID,0.45,
2016-10-22, 17:30:04,VALID,918.983,VALID,0,VALID,68.7022,VALID,663.449,VALID,26.4838,VALID,357,VALID,0.0261719,
2016-10-22, 17:31:04,VALID,918.964,VALID,0,VALID,66.8497,VALID,659.581,VALID,26.5229,VALID,258,VALID,0.154297,
2016-10-22, 17:32:04,VALID,918.902,VALID,0,VALID,66.8421,VALID,644.11,VALID,26.2299,VALID,245,VALID,1.26484,
2016-10-22, 17:33:04,VALID,918.871,VALID,0,VALID,71.4543,VALID,592.645,VALID,26.0151,VALID,303,VALID,0.0953125,
2016-10-22, 17:34:04,VALID,918.794,VALID,0,VALID,69.5713,VALID,759.824,VALID,26.2104,VALID,30,VALID,0.08125,
2016-10-22, 17:35:04,VALID,918.778,VALID,0,VALID,69.3045,VALID,780.882,VALID,26.1127,VALID,51,VALID,0.0183594,
2016-10-22, 17:36:04,VALID,918.817,VALID,0,VALID,74.0844,VALID,364.655,VALID,26.2104,VALID,340,VALID,0.355859,
2016-10-22, 17:37:04,VALID,918.793,VALID,0,VALID,69.1977,VALID,773.039,VALID,26.4643,VALID,356,VALID,0.00507812,
2016-10-22, 17:38:04,VALID,918.777,VALID,0,VALID,67.7493,VALID,751.336,VALID,26.6771,VALID,8,VALID,0,
2016-10-22, 17:39:04,VALID,918.726,VALID,0,VALID,69.213,VALID,728.558,VALID,26.9917,VALID,50,VALID,0.766016,
2016-10-22, 17:40:04,VALID,918.738,VALID,0,VALID,65.6833,VALID,732.426,VALID,27.3238,VALID,8,VALID,0.261719,
2016-10-22, 17:41:04,VALID,918.782,VALID,0,VALID,64.9134,VALID,737.154,VALID,27.4996,VALID,352,VALID,0,
2016-10-22, 17:42:04,VALID,918.731,VALID,0,VALID,62.0394,VALID,706.318,VALID,27.6538,VALID,360,VALID,0,
2016-10-22, 17:43:04,VALID,918.751,VALID,0,VALID,61.0788,VALID,706.318,VALID,27.7145,VALID,299,VALID,0,
2016-10-22, 17:44:04,VALID,918.736,VALID,0,VALID,62.5501,VALID,645.292,VALID,27.4975,VALID,349,VALID,0,
2016-10-22, 17:45:04,VALID,918.716,VALID,0,VALID,63.5945,VALID,665.061,VALID,27.441,VALID,13,VALID,0,
2016-10-22, 17:46:04,VALID,918.69,VALID,0,VALID,63.6555,VALID,388.83,VALID,27.5582,VALID,13,VALID,0.920313,
2016-10-22, 17:47:04,VALID,918.702,VALID,0,VALID,61.9784,VALID,376.259,VALID,27.48,VALID,22,VALID,1.57031,
2016-10-22, 17:48:04,VALID,918.713,VALID,0,VALID,62.8246,VALID,671.292,VALID,27.3217,VALID,7,VALID,0.159375,
2016-10-22, 17:49:04,VALID,918.689,VALID,0,VALID,65.63,VALID,747.146,VALID,27.2651,VALID,22,VALID,0.321484,
2016-10-22, 17:50:04,VALID,918.744,VALID,0,VALID,65.7062,VALID,803.338,VALID,27.1675,VALID,342,VALID,0,
2016-10-22, 17:51:04,VALID,918.659,VALID,0,VALID,64.4789,VALID,765.518,VALID,26.931,VALID,259,VALID,0,
2016-10-22, 17:52:04,VALID,918.689,VALID,0,VALID,67.5511,VALID,792.378,VALID,26.7768,VALID,308,VALID,0.000390625,
2016-10-22, 17:53:04,VALID,918.666,VALID,0,VALID,63.5259,VALID,796.891,VALID,26.6576,VALID,249,VALID,0.617578,
2016-10-22, 17:54:04,VALID,918.675,VALID,0,VALID,67.3376,VALID,813.115,VALID,26.4623,VALID,255,VALID,0.00195313,
2016-10-22, 17:55:04,VALID,918.656,VALID,0,VALID,65.4928,VALID,838.041,VALID,26.7162,VALID,20,VALID,0.0878906,
2016-10-22, 17:56:04,VALID,918.673,VALID,0,VALID,64.9668,VALID,792.164,VALID,26.7377,VALID,349,VALID,0.421484,
2016-10-22, 17:57:04,VALID,918.691,VALID,0,VALID,65.5766,VALID,758.964,VALID,26.7963,VALID,303,VALID,0.028125,
2016-10-22, 17:58:04,VALID,918.672,VALID,0,VALID,67.574,VALID,793.668,VALID,26.7943,VALID,34,VALID,0.00859375,
2016-10-22, 17:59:04,VALID,918.658,VALID,0,VALID,65.8434,VALID,792.701,VALID,26.8529,VALID,238,VALID,0.129688,